SCP
-0 -0 -0 -0 -0 -0 -0 -0 -0 -0 0 0 0 0 0 0 0 -0 -0 0 -0 -0 -0 -0 -0 -0 -0 -0 -0 -0 -0 -0 -0 -0 -0 -0 -0 0 -0 -0 0 -0 -0
-0 -0 -0 -0 -0 -0 -0 -0 -0 -0 -0 0 0 0 0 0 0 0 0 0 0 0 -0 -0 -0 0 -0 -0 -0 -0 -0 -0 -0 -0 -0 -0 -0 -0 -0 -0 -0 -0 -0
-0 -0 -0 -0 -0 -0 -0 -0 -0 -0 -0 -0 -0 0 0 0 0 0 0 0 0 0 -0 -0 0 -0 -0 -0 -0 -0 -0 -0 -0 -0 -0 0 0 -0 -0 -0 -0 -0 -0
-0 -0 -0 -0 -0 -0 -0 -0 -0 -0 -0 -0 -0 -0 -0 0 -0 0 0 0 0 0 0 0 0 -0 -0 -0 -0 -0 -0 -0 -0 -0 -0 -0 -0 -0 -0 -0 -0 -0 -0
-0 -0 -0 -0 -0 -0 -0 -0 -0 -0 -0 -0 -0 -0 0 0 0 0 0 0 0 -0 -0 0 0 0 0 -0 -0 -0 -0 -0 -0 -0 -0 -0 0 -0 -0 -0 -0 -0 -0
-0 0 -0 -0 -0 -0 -0 -0 -0 -0 -0 -0 -0 -0 -0 0 -0 -0 -0 -0 -0 -0 0 0 -0 -0 -0 -0 -0 -0 -0 -0 -0 -0 -0 -0 -0 -0 -0 -0 -0 -0 -0
-0 0 0 0 0 -0 -0 -0 -0 -0 0 -0 -0 -0 -0 -0 -0 0 0 -0 -0 -0 -0 -0 -0 -0 -0 0 -0 -0 -0 -0 -0 -0 -0 -0 -0 -0 -0 -0 -0 -0 -0
-0 -0 0 0 0 0 0 0 0 0 0 0 0 0 0 0 0 0 0 0 0 0 -0 -0 -0 -0 -0 -0 -0 -0 -0 -0 0 0 0 0 -0 -0 -0 -0 -0 -0 -0
-0 -0 -0 0 0 0 0 0 0 0 0 0 0 0 0 0 0 0 0 0 0 0 0 0 0 0 0 0 0 0 0 0 0 0 0 0 0 0 0 0 0 0 0
0 -0 -0 0 0 0 0 0 0 0 0 0 0 0 0 0 0 0 0 0 0 0 0 0 0 0 0 0 0 0 0 0 0 0 0 0 0 0 0 0 0 0 0
0 0 0 0 0 0 0 0 0 0 0 0 0 0 0 0 0 0 0 0 0 0 0 0 0 0 0 0 0 0 0 0 0 0 0 0 0 0 0 0 0 0 0
0 0 0 0 0 0 0 0 0 0 0 0 0 0 0 0 0 0 0 0 0 0 0 0 0 0 0 0 0 0 0 0 0 0 0 0 0 0 0 0 0 0 0
0 0 0 0 0 0 0 0 0 0 0 0 0 0 0 0 0 0 0 0 0 0 0 0 0 0 0 0 0 0 0 0 0 0 0 0 0 0 0 0 0 0 0
0 0 0 0 0 0 0 0 0 0 0 0 0 0 0 0 0 0 0 0 0 0 0 0 0 0 0 0 0 0 0 0 0 0 0 0 0 0 0 0 0 0 0
0 0 0 0 0 0 0 0 0 0 0 0 0 0 0 0 0 0 0 0 0 0 0 0 0 0 0 0 0 0 0 0 0 0 0 0 0 0 0 0 0 0 0
0 0 0 0 0 0 0 0 0 0 0 0 0 0 0 0 0 0 0 0 0 0 0 0 0 0 0 0 0 0 0 0 0 0 0 0 0 0 0 0 0 0 0
0 0 0 0 0 0 0 0 0 0 0 0 0 0 0 0 0 0 0 0 0 0 0 0 0 0 0 0 0 0 0 0 0 0 0 0 0 0 0 0 0 0 0
0 0 0 0 0 0 0 0 0 0 0 0 0 0 0 0 0 0 0 0 0 0 0 0 0 0 0 0 0 0 0 0 0 0 0 0 0 0 0 0 0 0 0
0 0 0 0 0 0 0 0 0 0 0 0 0 0 0 0 0 0 0 0 0 0 0 0 0 0 0 0 0 0 0 0 0 0 0 0 0 0 0 0 0 0 0
0 0 0 0 0 0 0 0 0 0 0 0 0 0 0 0 0 0 0 0 0 0 0 0 0 0 0 0 0 0 0 0 0 0 0 0 0 0 0 0 0 0 0
0 0 0 0 0 0 0 0 0 0 0 0 0 0 0 0 0 0 0 0 0 0 0 0 0 0 0 0 0 0 0 0 0 0 0 0 0 0 0 0 0 0 0
0 0 0 0 0 0 0 0 0 0 0 0 0 0 0 0 0 0 0 0 0 0 0 0 0 0 0 0 0 0 0 0 0 0 0 0 0 0 0 0 0 0 0
0 0 0 0 0 0 0 0 0 0 0 0 0 0 0 0 0 0 0 0 0 0 0 0 0 0 0 0 0 0 0 0 0 0 0 0 0 0 0 0 0 0 0
-0 -0 -0 0 0 0 0 0 0 0 0 0 0 0 0 0 0 0 0 0 0 0 0 0 0 0 0 0 0 0 0 0 0 0 0 0 0 0 0 0 0 0 0
-0 -0 -0 -0 0 0 0 0 0 0 0 0 0 0 0 0 0 0 0 0 0 0 0 0 0 0 0 0 0 0 0 0 0 0 0 0 0 0 0 0 0 0 0
0 -0 -0 -0 -0 0 0 0 0 0 0 0 0 0 0 0 0 0 0 0 0 0 0 0 0 0 0 0 0 0 0 0 0 0 0 0 0 0 0 0 0 0 0
Wind_Speed_500mb
54 46 44 40 38 34 32 32 32 30 27 25 23 20 18 16 15 16 15 13 13 10 9 11 10 6 5 7 7 5 3 2 3 5 7 9 10 11 11 13 14 13 13
44 44 43 42 37 36 34 32 32 31 27 25 25 25 22 22 22 19 15 14 13 13 15 14 8 9 10 11 9 7 5 3 3 2 2 7 11 12 5 9 11 10 11
36 41 43 41 40 33 33 32 30 27 27 26 22 21 24 26 21 18 16 16 15 16 16 12 11 12 13 13 9 7 7 6 4 3 2 2 6 7 4 3 3 7 8
32 39 41 40 43 41 40 33 30 27 26 25 22 25 28 21 18 16 17 17 19 21 19 14 14 14 14 14 12 12 12 10 8 6 5 3 4 2 7 7 6 4 4
32 38 37 39 42 43 39 36 33 33 29 26 29 32 25 18 16 18 21 22 23 19 17 16 16 14 13 11 11 12 13 14 13 11 8 7 7 6 3 9 14 12 8
33 40 39 39 39 39 38 37 34 34 34 34 33 23 22 21 22 21 22 20 19 17 15 15 12 9 6 5 6 7 8 11 12 14 13 13 13 11 11 12 13 14 13
32 38 41 41 38 39 40 42 41 45 37 36 29 23 24 24 23 21 22 19 17 15 11 8 6 4 3 3 4 5 5 6 8 12 14 19 20 23 21 19 19 15 17
30 35 40 43 44 41 42 43 38 34 34 34 29 26 26 24 22 21 21 19 16 13 9 6 3 2 2 2 3 5 5 5 6 8 13 20 25 28 28 27 20 21 17
33 37 40 45 46 46 43 43 41 36 36 35 31 28 26 24 22 21 20 18 16 13 10 8 5 4 4 4 3 5 6 6 7 7 12 18 25 29 28 30 29 27 25
37 39 42 46 48 49 47 46 44 39 38 35 32 31 27 25 23 22 21 19 17 15 13 10 7 6 5 5 4 4 5 6 7 9 12 16 20 25 26 27 27 28 28
41 44 47 50 53 51 49 50 47 45 42 37 36 33 29 28 25 26 25 25 22 20 17 14 12 10 8 6 4 4 5 6 7 9 13 15 17 21 23 23 24 26 27
46 46 50 53 56 56 55 55 52 50 48 44 43 38 34 33 31 32 30 29 25 22 18 15 11 9 7 5 4 4 7 9 10 11 13 16 18 18 18 17 18 18 19
46 50 52 55 57 59 59 58 57 56 53 51 48 42 39 39 40 38 36 33 28 24 20 16 12 10 7 6 7 8 9 10 11 12 13 14 17 18 18 18 19 20 19
54 51 56 58 60 63 62 63 62 61 60 58 54 49 47 45 45 43 40 38 34 29 24 18 14 11 9 9 9 10 11 11 11 13 14 15 17 17 19 20 19 19 17
62 59 59 61 64 65 66 68 68 68 68 64 61 57 54 53 50 48 46 43 38 32 27 23 19 15 12 11 12 12 11 12 13 14 14 13 15 18 18 19 18 17 10
55 58 60 65 67 67 69 71 73 73 72 71 69 65 61 59 57 55 52 49 44 38 34 30 24 19 17 14 12 11 11 11 12 13 14 13 13 16 20 21 19 16 14
52 51 55 63 71 74 75 74 78 76 76 77 75 72 70 67 66 64 60 57 51 46 42 36 30 25 21 16 14 12 11 11 12 13 12 11 11 14 17 19 19 22 24
57 51 50 57 67 75 81 82 82 82 80 82 82 79 77 75 73 72 69 64 59 54 49 43 37 30 25 20 17 15 13 13 13 12 10 10 10 12 14 16 17 21 18
71 66 60 61 66 73 82 88 89 90 88 89 87 85 86 82 80 79 74 68 66 62 56 50 43 37 31 27 23 19 16 16 14 13 12 12 11 11 13 15 16 15 14
66 67 73 71 72 74 84 93 96 98 98 98 95 94 92 91 88 85 80 76 73 69 64 59 52 44 38 34 27 21 19 17 18 18 18 17 17 16 16 16 16 15 14
45 52 57 61 66 76 87 96 103 108 106 109 106 101 99 98 95 94 89 86 82 78 71 63 57 51 47 40 32 26 21 21 22 24 24 21 18 17 17 14 13 14 16
31 30 36 46 55 66 78 91 102 108 112 113 113 112 107 105 101 100 97 94 89 83 77 72 67 62 56 48 41 30 20 22 28 32 32 27 20 21 17 11 12 14 14
44 40 37 40 43 51 65 80 95 106 107 114 123 120 117 112 108 107 102 97 93 89 87 81 74 68 61 56 50 32 19 19 34 41 41 36 27 26 16 11 14 15 16
66 70 66 58 51 56 64 74 85 101 112 115 115 118 119 116 113 109 105 102 99 97 93 86 78 73 66 62 55 52 45 25 23 23 42 41 40 35 28 19 18 18 16
77 72 68 66 69 61 65 74 86 95 101 109 106 110 113 119 117 114 110 106 104 100 93 89 85 81 74 68 63 56 53 48 44 32 28 40 46 39 36 27 22 20 16
81 65 68 77 77 74 62 66 77 86 95 102 106 106 103 109 118 117 113 112 108 103 98 92 86 83 79 73 67 62 58 54 54 48 45 36 38 37 36 31 26 22 17
Wind_Direction_500mb
187 187 186 184 182 184 180 178 176 179 180 184 188 195 195 198 198 196 203 211 221 239 250 253 258 267 284 277 292 299 333 16 51 81 77 78 78 71 53 51 56 63 62
190 188 189 190 187 189 190 188 184 183 186 189 195 202 210 211 218 225 222 233 244 243 252 272 304 312 306 309 331 337 327 341 331 327 65 80 80 77 85 78 76 60 57
188 193 191 191 187 191 199 193 194 198 201 205 211 218 223 223 228 240 246 246 242 249 262 291 312 302 299 299 308 305 301 301 292 300 285 145 128 127 132 121 86 52 56
185 190 192 193 190 190 200 198 197 201 206 206 207 221 241 245 234 225 237 242 255 265 285 292 287 290 288 288 292 283 276 276 273 268 262 228 186 160 262 253 252 291 337
185 190 194 195 194 196 200 200 202 200 202 206 213 221 234 234 236 231 230 239 249 263 272 282 286 287 284 284 277 272 272 268 264 256 252 246 209 196 277 285 266 266 274
190 193 195 195 193 193 195 194 196 198 199 207 218 224 227 232 239 243 245 239 237 243 255 265 267 269 278 303 303 289 282 270 261 257 244 243 226 205 226 253 263 257 259
200 199 198 196 198 190 185 190 195 202 201 212 226 225 229 234 234 232 236 245 250 252 240 229 227 244 292 328 325 324 319 295 268 245 239 238 235 234 235 246 259 265 258
213 211 206 203 206 205 203 206 215 216 217 224 231 230 229 228 227 231 233 232 227 217 215 218 229 252 265 285 297 304 304 295 277 256 239 235 237 239 246 256 267 278 280
218 217 216 212 212 214 216 219 226 219 222 227 229 230 228 228 229 227 223 215 208 207 205 215 226 252 271 268 249 253 254 256 268 261 243 234 236 244 249 260 263 269 278
225 222 220 220 221 220 222 224 230 229 229 227 228 230 229 228 225 219 212 208 205 205 208 214 230 243 259 267 261 256 264 270 265 258 251 246 245 252 258 263 271 275 276
231 227 225 223 224 226 225 227 227 230 233 228 228 231 232 230 223 218 211 208 207 208 211 215 215 217 226 242 266 287 298 287 272 270 268 261 251 253 261 268 272 276 280
241 237 232 228 227 227 227 229 230 232 232 230 230 230 227 225 220 218 216 214 215 218 220 224 229 233 237 240 257 284 295 298 293 276 257 257 260 261 263 268 271 273 277
256 243 239 235 232 231 231 232 233 234 233 232 232 230 227 224 221 220 219 219 219 222 227 228 232 243 261 286 310 319 318 309 299 285 273 260 256 258 261 259 261 268 275
254 250 243 240 238 235 233 234 236 237 236 235 234 232 230 228 225 223 221 219 222 222 224 228 238 255 276 296 312 318 322 319 310 300 290 272 257 251 249 250 257 262 266
253 249 246 242 241 240 237 237 235 236 236 237 236 234 232 230 230 228 226 224 224 225 227 231 236 244 257 274 286 297 307 311 310 305 295 280 270 259 258 252 251 253 222
258 252 249 245 243 241 240 240 239 237 237 236 235 235 234 233 230 229 229 228 227 226 227 227 228 230 237 248 265 285 298 307 307 305 297 287 264 243 243 245 241 141 216
266 261 253 248 245 244 242 242 240 239 238 237 236 235 234 233 231 230 229 227 226 225 225 227 229 228 233 242 253 267 280 292 299 300 294 277 255 236 231 229 221 167 239
265 264 263 253 247 245 244 242 241 239 238 238 236 235 235 233 231 230 228 226 225 224 224 225 225 226 229 234 245 255 265 276 279 280 271 255 228 216 221 222 218 223 243
285 278 269 264 257 250 245 242 241 241 238 238 236 235 235 233 231 230 229 228 226 225 224 224 223 222 224 229 235 243 254 261 263 252 233 220 214 214 213 218 220 226 242
286 281 277 270 263 256 248 243 240 240 238 237 236 235 233 231 230 229 228 227 227 226 224 223 222 221 221 224 229 238 246 251 243 232 217 209 210 212 214 219 228 231 231
299 289 282 276 270 258 248 242 239 239 238 237 235 235 234 232 229 228 227 226 226 227 228 226 223 221 222 222 222 220 224 227 228 223 215 203 200 207 210 217 227 244 266
327 320 302 289 276 267 257 251 246 242 240 240 239 235 232 231 230 230 228 226 226 226 225 225 224 223 221 218 218 215 207 218 215 207 207 210 214 213 205 237 257 264 268
26 9 337 308 292 278 266 256 247 245 243 241 238 236 233 231 230 229 229 228 228 227 226 226 227 227 226 221 217 211 192 206 206 217 221 225 226 212 225 260 272 271 275
9 2 357 348 323 288 268 259 253 247 246 246 244 241 236 232 232 230 230 230 229 229 226 226 225 226 227 228 223 223 226 212 188 198 214 223 221 224 225 246 255 258 258
358 353 356 348 343 317 285 268 259 253 252 251 250 247 241 235 231 231 230 230 230 230 230 228 225 224 225 228 230 230 227 226 225 215 206 212 215 222 231 244 247 245 241
351 353 350 347 344 336 310 279 269 260 255 252 250 247 247 242 234 231 230 231 230 230 230 230 229 228 229 228 229 234 238 232 229 223 225 220 220 219 227 231 236 233 235
Wind_Speed_850mb
54 46 44 40 38 34 32 32 32 30 27 25 23 20 18 16 15 16 15 13 13 10 9 11 10 6 5 7 7 5 3 2 3 5 7 9 10 11 11 13 14 13 13
44 44 43 42 37 36 34 32 32 31 27 25 25 25 22 22 22 19 15 14 13 13 15 14 8 9 10 11 9 7 5 3 3 2 2 7 11 12 5 9 11 10 11
36 41 43 41 40 33 33 32 30 27 27 26 22 21 24 26 21 18 16 16 15 16 16 12 11 12 13 13 9 7 7 6 4 3 2 2 6 7 4 3 3 7 8
32 39 41 40 43 41 40 33 30 27 26 25 22 25 28 21 18 16 17 17 19 21 19 14 14 14 14 14 12 12 12 10 8 6 5 3 4 2 7 7 6 4 4
32 38 37 39 42 43 39 36 33 33 29 26 29 32 25 18 16 18 21 22 23 19 17 16 16 14 13 11 11 12 13 14 13 11 8 7 7 6 3 9 14 12 8
33 40 39 39 39 39 38 37 34 34 34 34 33 23 22 21 22 21 22 20 19 17 15 15 12 9 6 5 6 7 8 11 12 14 13 13 13 11 11 12 13 14 13
32 38 41 41 38 39 40 42 41 45 37 36 29 23 24 24 23 21 22 19 17 15 11 8 6 4 3 3 4 5 5 6 8 12 14 19 20 23 21 19 19 15 17
30 35 40 43 44 41 42 43 38 34 34 34 29 26 26 24 22 21 21 19 16 13 9 6 3 2 2 2 3 5 5 5 6 8 13 20 25 28 28 27 20 21 17
33 37 40 45 46 46 43 43 41 36 36 35 31 28 26 24 22 21 20 18 16 13 10 8 5 4 4 4 3 5 6 6 7 7 12 18 25 29 28 30 29 27 25
37 39 42 46 48 49 47 46 44 39 38 35 32 31 27 25 23 22 21 19 17 15 13 10 7 6 5 5 4 4 5 6 7 9 12 16 20 25 26 27 27 28 28
41 44 47 50 53 51 49 50 47 45 42 37 36 33 29 28 25 26 25 25 22 20 17 14 12 10 8 6 4 4 5 6 7 9 13 15 17 21 23 23 24 26 27
46 46 50 53 56 56 55 55 52 50 48 44 43 38 34 33 31 32 30 29 25 22 18 15 11 9 7 5 4 4 7 9 10 11 13 16 18 18 18 17 18 18 19
46 50 52 55 57 59 59 58 57 56 53 51 48 42 39 39 40 38 36 33 28 24 20 16 12 10 7 6 7 8 9 10 11 12 13 14 17 18 18 18 19 20 19
54 51 56 58 60 63 62 63 62 61 60 58 54 49 47 45 45 43 40 38 34 29 24 18 14 11 9 9 9 10 11 11 11 13 14 15 17 17 19 20 19 19 17
62 59 59 61 64 65 66 68 68 68 68 64 61 57 54 53 50 48 46 43 38 32 27 23 19 15 12 11 12 12 11 12 13 14 14 13 15 18 18 19 18 17 10
55 58 60 65 67 67 69 71 73 73 72 71 69 65 61 59 57 55 52 49 44 38 34 30 24 19 17 14 12 11 11 11 12 13 14 13 13 16 20 21 19 16 14
52 51 55 63 71 74 75 74 78 76 76 77 75 72 70 67 66 64 60 57 51 46 42 36 30 25 21 16 14 12 11 11 12 13 12 11 11 14 17 19 19 22 24
57 51 50 57 67 75 81 82 82 82 80 82 82 79 77 75 73 72 69 64 59 54 49 43 37 30 25 20 17 15 13 13 13 12 10 10 10 12 14 16 17 21 18
71 66 60 61 66 73 82 88 89 90 88 89 87 85 86 82 80 79 74 68 66 62 56 50 43 37 31 27 23 19 16 16 14 13 12 12 11 11 13 15 16 15 14
66 67 73 71 72 74 84 93 96 98 98 98 95 94 92 91 88 85 80 76 73 69 64 59 52 44 38 34 27 21 19 17 18 18 18 17 17 16 16 16 16 15 14
45 52 57 61 66 76 87 96 103 108 106 109 106 101 99 98 95 94 89 86 82 78 71 63 57 51 47 40 32 26 21 21 22 24 24 21 18 17 17 14 13 14 16
31 30 36 46 55 66 78 91 102 108 112 113 113 112 107 105 101 100 97 94 89 83 77 72 67 62 56 48 41 30 20 22 28 32 32 27 20 21 17 11 12 14 14
44 40 37 40 43 51 65 80 95 106 107 114 123 120 117 112 108 107 102 97 93 89 87 81 74 68 61 56 50 32 19 19 34 41 41 36 27 26 16 11 14 15 16
66 70 66 58 51 56 64 74 85 101 112 115 115 118 119 116 113 109 105 102 99 97 93 86 78 73 66 62 55 52 45 25 23 23 42 41 40 35 28 19 18 18 16
77 72 68 66 69 61 65 74 86 95 101 109 106 110 113 119 117 114 110 106 104 100 93 89 85 81 74 68 63 56 53 48 44 32 28 40 46 39 36 27 22 20 16
81 65 68 77 77 74 62 66 77 86 95 102 106 106 103 109 118 117 113 112 108 103 98 92 86 83 79 73 67 62 58 54 54 48 45 36 38 37 36 31 26 22 17
Wind_Direction_850mb
187 187 186 184 182 184 180 178 176 179 180 184 188 195 195 198 198 196 203 211 221 239 250 253 258 267 284 277 292 299 333 16 51 81 77 78 78 71 53 51 56 63 62
190 188 189 190 187 189 190 188 184 183 186 189 195 202 210 211 218 225 222 233 244 243 252 272 304 312 306 309 331 337 327 341 331 327 65 80 80 77 85 78 76 60 57
188 193 191 191 187 191 199 193 194 198 201 205 211 218 223 223 228 240 246 246 242 249 262 291 312 302 299 299 308 305 301 301 292 300 285 145 128 127 132 121 86 52 56
185 190 192 193 190 190 200 198 197 201 206 206 207 221 241 245 234 225 237 242 255 265 285 292 287 290 288 288 292 283 276 276 273 268 262 228 186 160 262 253 252 291 337
185 190 194 195 194 196 200 200 202 200 202 206 213 221 234 234 236 231 230 239 249 263 272 282 286 287 284 284 277 272 272 268 264 256 252 246 209 196 277 285 266 266 274
190 193 195 195 193 193 195 194 196 198 199 207 218 224 227 232 239 243 245 239 237 243 255 265 267 269 278 303 303 289 282 270 261 257 244 243 226 205 226 253 263 257 259
200 199 198 196 198 190 185 190 195 202 201 212 226 225 229 234 234 232 236 245 250 252 240 229 227 244 292 328 325 324 319 295 268 245 239 238 235 234 235 246 259 265 258
213 211 206 203 206 205 203 206 215 216 217 224 231 230 229 228 227 231 233 232 227 217 215 218 229 252 265 285 297 304 304 295 277 256 239 235 237 239 246 256 267 278 280
218 217 216 212 212 214 216 219 226 219 222 227 229 230 228 228 229 227 223 215 208 207 205 215 226 252 271 268 249 253 254 256 268 261 243 234 236 244 249 260 263 269 278
225 222 220 220 221 220 222 224 230 229 229 227 228 230 229 228 225 219 212 208 205 205 208 214 230 243 259 267 261 256 264 270 265 258 251 246 245 252 258 263 271 275 276
231 227 225 223 224 226 225 227 227 230 233 228 228 231 232 230 223 218 211 208 207 208 211 215 215 217 226 242 266 287 298 287 272 270 268 261 251 253 261 268 272 276 280
241 237 232 228 227 227 227 229 230 232 232 230 230 230 227 225 220 218 216 214 215 218 220 224 229 233 237 240 257 284 295 298 293 276 257 257 260 261 263 268 271 273 277
256 243 239 235 232 231 231 232 233 234 233 232 232 230 227 224 221 220 219 219 219 222 227 228 232 243 261 286 310 319 318 309 299 285 273 260 256 258 261 259 261 268 275
254 250 243 240 238 235 233 234 236 237 236 235 234 232 230 228 225 223 221 219 222 222 224 228 238 255 276 296 312 318 322 319 310 300 290 272 257 251 249 250 257 262 266
253 249 246 242 241 240 237 237 235 236 236 237 236 234 232 230 230 228 226 224 224 225 227 231 236 244 257 274 286 297 307 311 310 305 295 280 270 259 258 252 251 253 222
258 252 249 245 243 241 240 240 239 237 237 236 235 235 234 233 230 229 229 228 227 226 227 227 228 230 237 248 265 285 298 307 307 305 297 287 264 243 243 245 241 141 216
266 261 253 248 245 244 242 242 240 239 238 237 236 235 234 233 231 230 229 227 226 225 225 227 229 228 233 242 253 267 280 292 299 300 294 277 255 236 231 229 221 167 239
265 264 263 253 247 245 244 242 241 239 238 238 236 235 235 233 231 230 228 226 225 224 224 225 225 226 229 234 245 255 265 276 279 280 271 255 228 216 221 222 218 223 243
285 278 269 264 257 250 245 242 241 241 238 238 236 235 235 233 231 230 229 228 226 225 224 224 223 222 224 229 235 243 254 261 263 252 233 220 214 214 213 218 220 226 242
286 281 277 270 263 256 248 243 240 240 238 237 236 235 233 231 230 229 228 227 227 226 224 223 222 221 221 224 229 238 246 251 243 232 217 209 210 212 214 219 228 231 231
299 289 282 276 270 258 248 242 239 239 238 237 235 235 234 232 229 228 227 226 226 227 228 226 223 221 222 222 222 220 224 227 228 223 215 203 200 207 210 217 227 244 266
327 320 302 289 276 267 257 251 246 242 240 240 239 235 232 231 230 230 228 226 226 226 225 225 224 223 221 218 218 215 207 218 215 207 207 210 214 213 205 237 257 264 268
26 9 337 308 292 278 266 256 247 245 243 241 238 236 233 231 230 229 229 228 228 227 226 226 227 227 226 221 217 211 192 206 206 217 221 225 226 212 225 260 272 271 275
9 2 357 348 323 288 268 259 253 247 246 246 244 241 236 232 232 230 230 230 229 229 226 226 225 226 227 228 223 223 226 212 188 198 214 223 221 224 225 246 255 258 258
358 353 356 348 343 317 285 268 259 253 252 251 250 247 241 235 231 231 230 230 230 230 230 228 225 224 225 228 230 230 227 226 225 215 206 212 215 222 231 244 247 245 241
351 353 350 347 344 336 310 279 269 260 255 252 250 247 247 242 234 231 230 231 230 230 230 230 229 228 229 228 229 234 238 232 229 223 225 220 220 219 227 231 236 233 235